Showing default

DMC 3-FM1, 40715

Orbit data source: Space-Track

DMC 3-FM1, 40715 is a payload satellite owned by DMCii (UK) in SSO that was launched on Fri, 10 Jul 2015 UTC via a PSLV-XL launch vehicle from the Sirharikota (SRI). Payload-class satellites include a variety of spacecraft equipped with specific instruments for various scientific and technological missions. These include communications satellites like Starlink; space stations such as the ISS; scientific satellites like the Hubble; Earth observation satellites from companies like Planet Labs, Umbra, and HawkEye 360; GPS; miniature CubeSats for education and research; and military/defense satellites.

Loading next visibility...
Identifier
40715, 2015-032A
Orbit
SSO
Last TLE update
20 hours ago
Origin
Manufacturer
SSTL (Astrium)
Mission
Operational Commercial Imaging
Bus & Motor
SSTL-300S1, Unknown motor
Mass
447 kg wet, 435 kg dry
Launch date (UTC)
2015-07-10 (10 years ago)
Launch vehicle
PSLV-XL
Launch site
Sirharikota (SRI)
Object type
Payload
Rocket body
Debris
Shape & HBR
Hept Cyl + Cyl, 2.5 m
Radar Cross Section
2.356 m², Large (>1 m²)

Expand to show TLE details & history

TLE from 20 hours ago
0 DMC 3-FM1
1 40715U 15032A   25119.18466589  .00001268  00000-0  15467-3 0  9996
2 40715  97.7046 354.2882 0005263 352.3088   7.8046 14.85005231528457
Epoch: 2025-04-29T04:25Z
Definitive object data (Epoch: 2025-04-29T04:25:55.132Z)
Latitude
-0.00001°
Longitude
70.42051°
Altitude
612.957 km
Speed
7.555 km/s
True Right ascension
23h 37m 09s
True Declination
0° 00' 00"
Sunlit
Object was in daylight at TLE epoch
Visualization TLE readout
Latitude
-22.89679°
Longitude
-112.01868°
Altitude
625.312 km
Speed
7.543 km/s
Apparent Right ascension
14h 43m 11s
Apparent Declination
-54° 45' 31"
Sunlit
Object is in full shadow
Visualization observer readout
Local Sidereal Time
08:17:20
Azimuth
135.564° SSE
Elevation
-35.021°
Doppler factor
1
Orbital elements
Apogee altitude
614.273 km
Perigee altitude
606.917 km
Semi-major axis
6,988.732 km
Eccentricity
0.0005263
Inclination
97.7046°
RAAN
354.2882°
Arg. of periapsis
352.3088°
True anomaly
7.8128°
Mean anomaly
7.8046°
Eccentric anomaly
7.8087°
Mean motion
3.71489 °/min
BSTAR
0.00015467
Orbital period
96.91 mins
Loading maneuver chart data...
Loading SW <> Apogee altitude chart data...
Loading historical data...
Loading historical data...
Loading historical data...
Loading historical data...
Loading historical data...
Loading historical data...
Loading historical data...
Other satellites on launch #32 in the year 2015 (2015-07-10 UTC)

DMC 3-FM1 Visibility forecast

Observer location: undefined°, undefined°

Span
Click to sort rows by Start time (UTC) header in descending order
Start Az.
Max El. time (UTC)
Max El. Az.
Max El.
End time (UTC)
End Az.
6 mins2025-04-30 03:38:55.454Z41.477° NE2025-04-30 03:41:55.454Z85.834° E21.29°2025-04-30 03:44:55.454Z139.982° SSE
6 mins2025-04-30 05:15:55.454Z337.331° NNW2025-04-30 05:17:55.454Z299.819° NW25.15°2025-04-30 05:21:55.454Z231.332° WSW
4 mins2025-04-30 14:33:55.454Z91.15° ESE2025-04-30 14:35:55.454Z57.686° ENE15.954°2025-04-30 14:37:55.454Z28.69° NE
6 mins2025-04-30 16:08:55.454Z205.199° SW2025-04-30 16:10:55.454Z254.504° W32.983°2025-04-30 16:14:55.454Z331.504° NNW
|